Weather observations for the past three days for
Rhinelander, Rhinelander-Oneida County Airport
Imperial (Metric)
Date Time (cdt) Wind (mph) Vis. (mi.) Weather Sky Cond. Temperature (ºF) Relative Humidity Wind Chill (°F) Heat Index (°F) Pressure Precipitation (in)
Air Dwpt 6 hour altimeter (in) sea level (mb) 1 hr 3 hr 6 hr
Max. Min.
31 11:53 Vrbl 3 10.00 Overcast OVC010 73.9 68 82% 29.91 1011.9
31 10:53 S 6 10.00 Overcast OVC008 72 66.9 84% 29.9 1011.9
31 09:53 SE 6 10.00 Overcast OVC007 70 66.9 90% 29.9 1011.7
31 08:53 SE 7 10.00 Overcast OVC006 69.1 66.9 93% 29.89 1011.4
31 07:53 SE 7 8.00 Overcast OVC006 68 66 93% 29.88 1011.4
31 06:53 S 5 7.00 Overcast OVC005 68 66 68 66.9 93% 29.89 1011.5
31 05:53 SE 7 8.00 Overcast OVC005 66.9 66 97% 29.89 1011.5
31 04:53 SE 8 7.00 Overcast OVC005 66.9 66 97% 29.9 1011.9
31 03:53 SE 10 7.00 Overcast OVC004 66.9 66 97% 29.9 1011.8
31 02:53 E 9 8.00 Overcast OVC005 66.9 66 97% 29.9 1012.0
31 01:53 E 7 8.00 Overcast OVC006 66.9 66 97% 29.93 1012.8
31 00:53 SE 7 8.00 Overcast OVC005 66.9 66 68 66.9 97% 29.95 1013.7
30 23:53 SE 7 7.00 Overcast OVC006 68 66 93% 29.96 1014.0
30 22:53 E 8 7.00 Overcast OVC004 68 66 93% 29.97 1014.1
30 21:53 SE 7 8.00 Overcast OVC005 68 66 93% 29.96 1014.2
30 20:53 SE 7 7.00 Overcast OVC005 68 66 93% 29.96 1014.0
30 19:53 E 8 7.00 Overcast OVC005 68 66 93% 29.95 1013.6
30 18:53 E 7 5.00 Fog/Mist OVC005 68 66 70 68 93% 29.95 1013.9
30 17:53 E 9 6.00 Fog/Mist OVC006 68 66 93% 29.94 1013.4
30 16:53 E 8 9.00 Overcast OVC009 69.1 66 90% 29.94 1013.3
30 15:53 E 8 10.00 Overcast OVC011 70 64.9 84% 29.94 1013.4
30 14:53 E 7 10.00 Overcast OVC013 70 64.9 84% 29.95 1013.8
30 13:53 E 6 10.00 Overcast OVC010 70 64.9 84% 29.96 1013.9
30 12:53 E 10 10.00 Overcast OVC010 69.1 64.9 70 63 87% 29.95 1013.6 0.01
30 11:53 E 8 10.00 Overcast OVC012 69.1 64.9 87% 29.94 1013.4
30 10:53 E 7 10.00 Overcast OVC011 69.1 64.9 87% 29.95 1013.6
30 09:53 E 7 10.00 Overcast OVC007 68 64.9 90% 29.94 1013.6 0.01
30 08:53 E 7 4.00 Fog/Mist OVC004 64.9 64 97% 29.93 1013.4
30 07:53 E 5 1.75 Fog/Mist OVC002 64 63 96% 29.95 1013.8 0.01
30 06:53 E 6 2.00 Fog/Mist OVC002 63 63 63 63 100% 29.94 1013.6
30 05:53 E 5 3.00 Fog/Mist OVC002 63 63 100% 29.92 1013.1
30 04:53 E 3 3.00 Fog/Mist OVC002 63 63 100% 29.93 1013.2
30 03:53 E 5 3.00 Fog/Mist OVC003 63 63 100% 29.93 1013.4
30 02:53 E 3 3.00 Fog/Mist OVC003 63 63 100% 29.93 1013.3
30 01:53 Calm 4.00 Fog/Mist OVC003 63 62.1 97% 29.95 1014.0
30 00:53 E 3 4.00 Fog/Mist OVC004 63 62.1 63 62.1 97% 29.96 1014.3 0.01 0.04
29 23:53 E 3 2.50 Light Rain Fog/Mist OVC004 63 62.1 97% 29.97 1014.7 0.02
29 22:53 SE 3 4.00 Fog/Mist OVC007 63 62.1 97% 29.98 1015.0
29 21:53 SE 3 7.00 Overcast BKN009 OVC013 63 62.1 97% 29.98 1015.0 0.01 0.01
29 20:53 SE 5 7.00 Overcast FEW005 OVC010 63 61 93% 29.98 1015.0
29 19:53 SE 5 4.00 Fog/Mist BKN016 OVC020 62.1 61 96% 29.98 1015.0
29 18:53 SE 5 10.00 Overcast SCT014 BKN019 OVC024 63 61 64.9 61 93% 29.98 1015.0 0.06
29 17:53 SE 6 10.00 Overcast BKN007 BKN013 OVC047 62.1 61 96% 29.98 1015.1
29 16:53 SE 5 10.00 Overcast BKN038 OVC050 62.1 60.1 93% 29.99 1015.4 0.02
29 15:53 S 9 G 18 2.50 Light Rain Fog/Mist SCT046 BKN070 OVC090 62.1 59 90% 30 1015.9 0.02 0.04
29 14:53 SW 15 G 24 10.00 Light Rain BKN011 OVC022 64 62.1 93% 30.02 1016.4 0.01
29 13:53 SW 14 10.00 Light Rain BKN010 OVC014 64.9 63 93% 30.02 1016.5 0.01
29 12:53 SW 12 7.00 Light Rain BKN007 OVC011 64.9 63 64.9 62.1 93% 30.04 1017.0 0.02 0.09
29 11:53 SW 10 5.00 Light Rain Fog/Mist BKN010 64 62.1 93% 30.06 1017.9 0.01
29 10:53 SW 9 8.00 Light Rain FEW024 BKN060 OVC100 63 61 93% 30.08 1018.4
29 09:53 SW 6 3.00 Light Rain Fog/Mist SCT039 BKN046 OVC100 63 60.1 90% 30.08 1018.5 0.06 0.06
29 08:53 SW 6 10.00 Mostly Cloudy BKN080 64.9 57.9 78% 30.08 1018.5
29 07:53 S 5 10.00 Mostly Cloudy BKN080 BKN100 62.1 55.9 80% 30.08 1018.4
29 06:53 SW 5 10.00 Overcast FEW045 BKN080 OVC100 61 55 61 55.9 81% 30.08 1018.1
29 05:53 Calm 10.00 Partly Cloudy SCT037 SCT100 57.9 55 90% 30.07 1017.6
29 04:53 Calm 10.00 Fair CLR 57.9 55 90% 30.07 1017.8
29 03:53 Calm 10.00 Fair CLR 57 55 93% 30.09 1018.3
29 02:53 Calm 10.00 Fair CLR 57 54 90% 30.06 1017.6
29 01:53 Calm 10.00 Fair CLR 55.9 54 93% 30.08 1018.1
29 00:53 Calm 10.00 Fair CLR 57.9 54 73.9 57.9 87% 30.07 1018.0
28 23:53 Calm 10.00 Fair CLR 59 54 83% 30.08 1018.3
28 22:53 W 5 10.00 Fair CLR 60.1 54 80% 30.09 1018.5
28 21:53 W 5 10.00 Fair CLR 64 54 70% 30.09 1018.4
28 20:53 Calm 10.00 Fair CLR 63 54 73% 30.08 1018.4
28 18:53 SW 6 10.00 A Few Clouds FEW070 73.9 51.1 80.1 73.9 45% 30.07 1018.4
28 17:53 SW 7 10.00 A Few Clouds FEW070 77 48.9 37% 78 30.08 1018.4
28 16:53 W 8 10.00 Partly Cloudy SCT070 79 48 34% 79 30.09 1018.7
28 15:53 W 5 10.00 Partly Cloudy SCT070 79 48 34% 79 30.09 1018.7
28 14:53 W 8 G 17 10.00 A Few Clouds FEW065 78.1 46.9 33% 78 30.1 1019.1
28 13:53 W 9 10.00 Partly Cloudy SCT065 75.9 50 40% 78 30.13 1020.0
28 12:53 SW 7 10.00 A Few Clouds FEW065 75 50 75.9 48 42% 78 30.14 1020.2
Date Time (cdt) Wind (mph) Vis. (mi.) Weather Sky Cond. Air Dwpt Max. Min. Relative Humidity Wind Chill (°F) Heat Index (°F) altimeter (in) sea level (mb) 1 hr 3 hr 6 hr
6 hour
Temperature (ºF) Pressure Precipitation (in)